• în Republica Moldova
  • Lista ţărilor
  • Pe 7 zile
  • Temperatura apei
  • Hartă satelitară
  • Meteo pe hartă
  • Widget-uri
  • user-avatar
    Intrare

    Meteo pe oră la Innsbruck

    Astăzi, 25 Aprilie, Miercuri

    Timp Temperatura Precipitaţii Vânt Presiune Umiditate
    00:00 +3°C° 0 mm 2 m/s 595 mmHg 85%
    01:00 +2°C° 0 mm 2 m/s 595 mmHg 85%
    02:00 +2°C° 0 mm 2 m/s 595 mmHg 86%
    03:00 +2°C° 0 mm 2 m/s 595 mmHg 86%
    04:00 +2°C° 0 mm 2 m/s 595 mmHg 87%
    05:00 +3°C° 0 mm 2 m/s 595 mmHg 85%
    06:00 +5°C° 0 mm 1 m/s 596 mmHg 83%
    07:00 +6°C° 0 mm 1 m/s 596 mmHg 80%
    08:00 +8°C° 0 mm 1 m/s 597 mmHg 74%
    09:00 +10°C° 0 mm 1 m/s 598 mmHg 67%
    10:00 +12°C° 0 mm 1 m/s 599 mmHg 60%
    11:00 +13°C° 0 mm 1 m/s 599 mmHg 57%
    12:00 +13°C° 0 mm 1 m/s 599 mmHg 54%
    13:00 +14°C° 0 mm 2 m/s 599 mmHg 52%
    14:00 +13°C° 0,1 mm 2 m/s 598 mmHg 54%
    15:00 +13°C° 0,1 mm 1 m/s 598 mmHg 57%
    16:00 +13°C° 0,1 mm 1 m/s 597 mmHg 59%
    17:00 +11°C° 0,4 mm 1 m/s 597 mmHg 69%
    18:00 +9°C° 0,4 mm 1 m/s 596 mmHg 78%
    19:00 +8°C° 0,4 mm 1 m/s 595 mmHg 88%
    20:00 +7°C° 0,4 mm 1 m/s 596 mmHg 91%
    21:00 +7°C° 0,4 mm 1 m/s 596 mmHg 93%
    22:00 +6°C° 0,4 mm 1 m/s 596 mmHg 96%
    23:00 +6°C° 0,5 mm 1 m/s 596 mmHg 96%

    Mâine, 26 Aprilie, Joi

    Timp Temperatura Precipitaţii Vânt Presiune Umiditate
    00:00 +6°C° 0,5 mm 1 m/s 596 mmHg 97%
    01:00 +6°C° 0,5 mm 1 m/s 596 mmHg 97%
    02:00 +5°C° 0,6 mm 1 m/s 595 mmHg 97%
    03:00 +5°C° 0,6 mm 1 m/s 595 mmHg 98%
    04:00 +5°C° 0,6 mm 1 m/s 595 mmHg 98%
    05:00 +4°C° 0,7 mm 1 m/s 595 mmHg 97%
    06:00 +4°C° 0,7 mm 1 m/s 595 mmHg 97%
    07:00 +4°C° 0,7 mm 1 m/s 595 mmHg 96%
    08:00 +3°C° 1 mm 2 m/s 595 mmHg 95%
    09:00 +3°C° 1 mm 2 m/s 595 mmHg 94%
    10:00 +3°C° 1 mm 2 m/s 595 mmHg 92%
    11:00 +3°C° 0,7 mm 2 m/s 595 mmHg 91%
    12:00 +3°C° 0,7 mm 2 m/s 595 mmHg 90%
    13:00 +3°C° 0,7 mm 2 m/s 595 mmHg 89%
    14:00 +3°C° 0,3 mm 2 m/s 595 mmHg 88%
    15:00 +3°C° 0,3 mm 2 m/s 595 mmHg 87%
    16:00 +4°C° 0,3 mm 2 m/s 595 mmHg 86%
    17:00 +3°C° 0,1 mm 2 m/s 595 mmHg 88%
    18:00 +4°C° 0,1 mm 1 m/s 595 mmHg 90%
    19:00 +3°C° 0,1 mm 1 m/s 595 mmHg 91%
    20:00 +3°C° 0 mm 1 m/s 595 mmHg 93%
    21:00 +2°C° 0 mm 1 m/s 595 mmHg 94%
    22:00 +1°C° 0 mm 1 m/s 595 mmHg 95%
    23:00 +1°C° 0 mm 1 m/s 595 mmHg 95%

    Poimâine, 27 Aprilie, Vineri

    Timp Temperatura Precipitaţii Vânt Presiune Umiditate
    00:00 0°C° 0 mm 1 m/s 595 mmHg 94%
    01:00 0°C° 0 mm 1 m/s 594 mmHg 94%
    02:00 0°C° 0 mm 1 m/s 594 mmHg 93%
    03:00 -2°C° 0 mm 2 m/s 594 mmHg 92%
    04:00 -2°C° 0 mm 2 m/s 593 mmHg 90%
    05:00 -1°C° 0 mm 2 m/s 594 mmHg 88%
    06:00 +1°C° 0 mm 2 m/s 594 mmHg 86%
    07:00 +3°C° 0 mm 2 m/s 594 mmHg 84%
    08:00 +5°C° 0 mm 2 m/s 595 mmHg 78%
    09:00 +7°C° 0 mm 2 m/s 596 mmHg 71%
    10:00 +9°C° 0 mm 2 m/s 597 mmHg 65%
    11:00 +10°C° 0 mm 2 m/s 597 mmHg 62%
    12:00 +12°C° 0 mm 2 m/s 597 mmHg 60%
    13:00 +13°C° 0 mm 2 m/s 597 mmHg 58%
    14:00 +13°C° 0,1 mm 2 m/s 597 mmHg 61%
    15:00 +12°C° 0,1 mm 2 m/s 596 mmHg 64%
    16:00 +10°C° 0,1 mm 2 m/s 596 mmHg 68%
    17:00 +9°C° 0,3 mm 2 m/s 595 mmHg 74%
    18:00 +7°C° 0,3 mm 2 m/s 595 mmHg 80%
    19:00 +7°C° 0,3 mm 1 m/s 594 mmHg 87%
    20:00 +5°C° 0,2 mm 2 m/s 594 mmHg 89%
    21:00 +4°C° 0,2 mm 2 m/s 594 mmHg 91%
    22:00 +3°C° 0,2 mm 2 m/s 594 mmHg 93%
    23:00 +3°C° 0 mm 2 m/s 594 mmHg 93%

    28 Aprilie, Sâmbătă

    Timp Temperatura Precipitaţii Vânt Presiune Umiditate
    00:00 +3°C° 0 mm 2 m/s 594 mmHg 93%
    01:00 +3°C° 0 mm 2 m/s 594 mmHg 93%
    02:00 +3°C° 0 mm 1 m/s 594 mmHg 94%
    03:00 +3°C° 0 mm 1 m/s 594 mmHg 94%
    04:00 +3°C° 0 mm 1 m/s 593 mmHg 94%
    05:00 +4°C° 0 mm 1 m/s 594 mmHg 91%
    06:00 +4°C° 0 mm 1 m/s 594 mmHg 87%
    07:00 +5°C° 0 mm 1 m/s 595 mmHg 84%
    08:00 +7°C° 0 mm 1 m/s 595 mmHg 76%
    09:00 +9°C° 0 mm 1 m/s 596 mmHg 68%
    10:00 +9°C° 0 mm 2 m/s 597 mmHg 60%
    11:00 +10°C° 0,1 mm 2 m/s 597 mmHg 59%
    12:00 +12°C° 0,1 mm 2 m/s 597 mmHg 58%
    13:00 +12°C° 0,1 mm 2 m/s 597 mmHg 57%
    14:00 +11°C° 0,5 mm 3 m/s 596 mmHg 61%
    15:00 +10°C° 0,5 mm 3 m/s 596 mmHg 64%
    16:00 +10°C° 0,5 mm 3 m/s 596 mmHg 67%
    17:00 +9°C° 0,7 mm 2 m/s 595 mmHg 74%
    18:00 +8°C° 0,7 mm 2 m/s 594 mmHg 80%
    19:00 +6°C° 0,7 mm 2 m/s 594 mmHg 86%
    20:00 +5°C° 0,1 mm 2 m/s 594 mmHg 89%
    21:00 +5°C° 0,1 mm 2 m/s 593 mmHg 91%
    22:00 +4°C° 0,1 mm 2 m/s 593 mmHg 93%
    23:00 +4°C° 0 mm 2 m/s 593 mmHg 93%

    29 Aprilie, Duminică

    Timp Temperatura Precipitaţii Vânt Presiune Umiditate
    00:00 +2°C° 0 mm 3 m/s 593 mmHg 94%
    01:00 +2°C° 0 mm 3 m/s 593 mmHg 94%
    02:00 +2°C° 0 mm 3 m/s 592 mmHg 93%
    03:00 +2°C° 0 mm 3 m/s 592 mmHg 93%
    04:00 +1°C° 0 mm 3 m/s 592 mmHg 92%
    05:00 +2°C° 0 mm 3 m/s 592 mmHg 89%
    06:00 +3°C° 0 mm 3 m/s 593 mmHg 86%
    07:00 +4°C° 0 mm 3 m/s 593 mmHg 82%
    08:00 +7°C° 0 mm 3 m/s 594 mmHg 72%
    09:00 +10°C° 0 mm 3 m/s 594 mmHg 61%
    10:00 +12°C° 0 mm 3 m/s 595 mmHg 51%
    11:00 +13°C° 0 mm 3 m/s 595 mmHg 49%
    12:00 +14°C° 0 mm 3 m/s 595 mmHg 47%
    13:00 +14°C° 0 mm 3 m/s 595 mmHg 45%
    14:00 +14°C° 0 mm 3 m/s 595 mmHg 48%
    15:00 +13°C° 0 mm 3 m/s 594 mmHg 50%
    16:00 +13°C° 0 mm 3 m/s 594 mmHg 53%
    17:00 +11°C° 0,3 mm 3 m/s 593 mmHg 62%
    18:00 +9°C° 0,3 mm 2 m/s 593 mmHg 71%
    19:00 +7°C° 0,3 mm 2 m/s 592 mmHg 80%
    20:00 +6°C° 0,3 mm 2 m/s 592 mmHg 84%
    21:00 +5°C° 0,3 mm 2 m/s 592 mmHg 88%
    22:00 +4°C° 0,3 mm 2 m/s 592 mmHg 93%
    23:00 +4°C° 0 mm 2 m/s 592 mmHg 93%

    30 Aprilie, Luni

    Timp Temperatura Precipitaţii Vânt Presiune Umiditate
    00:00 +4°C° 0 mm 2 m/s 592 mmHg 94%
    01:00 +4°C° 0 mm 2 m/s 592 mmHg 95%
    02:00 +3°C° 0 mm 2 m/s 591 mmHg 95%
    03:00 +3°C° 0 mm 2 m/s 591 mmHg 95%
    04:00 +3°C° 0 mm 2 m/s 591 mmHg 95%
    05:00 +3°C° 0,1 mm 2 m/s 591 mmHg 92%
    06:00 +4°C° 0,1 mm 2 m/s 591 mmHg 89%
    07:00 +4°C° 0,1 mm 2 m/s 591 mmHg 86%
    08:00 +6°C° 0,1 mm 2 m/s 592 mmHg 79%
    09:00 +7°C° 0,1 mm 3 m/s 593 mmHg 72%
    10:00 +9°C° 0,1 mm 3 m/s 593 mmHg 65%
    11:00 +9°C° 0,1 mm 3 m/s 593 mmHg 62%
    12:00 +10°C° 0,1 mm 3 m/s 593 mmHg 59%
    13:00 +10°C° 0,1 mm 3 m/s 593 mmHg 56%
    14:00 +10°C° 0,5 mm 3 m/s 593 mmHg 57%
    15:00 +9°C° 0,5 mm 3 m/s 593 mmHg 58%
    16:00 +8°C° 0,5 mm 3 m/s 593 mmHg 58%
    17:00 +5°C° 0,4 mm 3 m/s 592 mmHg 66%
    18:00 +4°C° 0,4 mm 2 m/s 592 mmHg 73%
    19:00 +2°C° 0,4 mm 2 m/s 591 mmHg 81%
    20:00 +2°C° 0,4 mm 2 m/s 592 mmHg 85%
    21:00 +1°C° 0,4 mm 2 m/s 592 mmHg 89%
    22:00 +1°C° 0,4 mm 1 m/s 592 mmHg 93%
    23:00 0°C° 0,3 mm 1 m/s 591 mmHg 94%
    Arată mai mult